Location: Rochester
(43.1610°N, 77.6109°W)
Time: 01:20:18
(UTC-04:00)

X-37B - Visible Passes

Search period start: 05 August 2021 00:00
Search period end: 15 August 2021 00:00
Orbit: 383 x 392 km, 45.0° (Epoch: 01 July)

Date Brightness Start Highest point End Pass type
(mag) Time Alt. Az. Time Alt. Az. Time Alt. Az.
05 Aug 2.6 03:29:11 24° E 03:29:11 24° E 03:30:43 10° E visible
05 Aug 0.9 05:01:28 13° W 05:04:14 64° N 05:07:26 10° ENE visible
06 Aug 0.5 04:05:36 72° WNW 04:05:50 81° NNW 04:09:02 10° ENE visible
07 Aug 3.2 03:09:44 18° ENE 03:09:44 18° ENE 03:10:39 10° ENE visible
07 Aug 1.1 04:42:01 18° WNW 04:44:12 58° N 04:47:22 10° E visible
08 Aug 1.3 03:46:13 55° NE 03:46:13 55° NE 03:48:56 10° ENE visible
08 Aug 0.8 05:19:23 10° WNW 05:22:34 72° N 05:25:46 10° E visible
09 Aug 3.9 02:50:30 10° ENE 02:50:30 10° ENE 02:50:33 10° ENE visible
09 Aug 1.0 04:22:47 30° WNW 04:24:09 61° N 04:27:19 10° E visible
10 Aug 2.6 03:27:12 27° ENE 03:27:12 27° ENE 03:28:52 10° E visible
10 Aug 0.5 04:59:30 11° WNW 05:02:29 85° SSW 05:05:41 10° ESE visible
11 Aug 0.7 04:04:06 72° NNE 04:04:06 72° NNE 04:07:17 10° E visible
11 Aug 1.4 05:37:41 10° W 05:40:37 34° SSW 05:43:32 10° SE visible
12 Aug 0.6 04:41:17 34° W 04:42:20 55° SSW 04:45:28 10° SE visible
13 Aug 3.1 03:46:28 16° ESE 03:46:28 16° ESE 03:47:11 10° ESE visible
13 Aug 2.0 05:18:50 15° WSW 05:20:21 20° SSW 05:22:47 10° SSE visible
14 Aug 3.0 04:24:28 14° SSE 04:24:28 14° SSE 04:25:03 10° SE visible
